Flag for Poland Weather past 2 weeks in Toruń, Poland

Now
53 °F

Clear.


Feels Like: 53 °F
Forecast: 52 / 74 °F
Wind: No wind

Location: Torun

Current Time: Sep 3, 2015 at 12:32:01 AM

Latest Report: Sep 2, 2015 at 10:00 PM


Visibility: 18 mi

Pressure: 30.00 "Hg

Humidity: 91%

Dew point: 51 °F

Location of ToruńLocation

Historic Weather in Toruń — Graph

°F

Toruń temperature yesterday

Maximum temperature yesterday: 72 °F (at 12:00 AM)
Minimum temperature yesterday: 53 °F (at 10:00 PM)
Average temperature yesterday: 63 °F

Past Weeks' High & Low Weather Summary

 TemperatureHumidityPressure
High94 °F (Sep 1, 4:00 PM)99% (Sep 2, 5:00 AM)30.37 "Hg (Sep 2, 5:00 AM)
Low46 °F (Aug 21, 5:00 AM)23% (Aug 19, 6:00 PM)29.66 "Hg (Sep 1, 7:00 PM)
Average69 °F57%30.06 "Hg
* Reported Aug 18 10:00 PM — Sep 2 10:00 PM, Toruń, Weather by CustomWeather, © 2015

Note: Actual official high and low records may vary slightly from our data, if they occured in-between our weather recording intervals... More about our weather records

Advertising

Toruń weather history for previous 24 hours

 ConditionsComfort  
Time TempWeatherWind HumidityBarometerVisibility
10:00 PM
Wed, Sep 2
53 °FClear.No wind91%30.00 "Hg18 mi
9:00 PM55 °FPassing clouds.1 mph87%30.00 "Hg28 mi
8:00 PM59 °FPassing clouds.No wind74%29.98 "Hg31 mi
7:00 PM67 °FPartly sunny.1 mph51%29.97 "Hg31 mi
6:00 PM67 °FOvercast.2 mph52%29.96 "Hg31 mi
5:00 PM68 °FOvercast.2 mph52%29.96 "Hg22 mi
4:00 PM67 °FPartly sunny.3 mph53%29.96 "Hg19 mi
3:00 PM67 °FScattered clouds.3 mph56%29.97 "Hg22 mi
2:00 PM67 °FScattered clouds.3 mph57%29.97 "Hg19 mi
1:00 PM66 °FPartly sunny.2 mph69%29.96 "Hg19 mi
12:00 PM61 °FOvercast.2 mph86%29.93 "Hg25 mi
11:00 AM60 °FSprinkles. Overcast.3 mph89%29.93 "Hg17 mi
10:00 AM60 °FSprinkles. Overcast.3 mph92%29.92 "Hg19 mi
9:00 AM60 °FSprinkles. Overcast.2 mph95%29.90 "Hg9 mi
8:00 AM60 °FSprinkles. Overcast.2 mph96%29.89 "Hg47 mi
7:00 AM60 °FOvercast.2 mph95%29.87 "Hg6 mi
6:00 AM61 °FOvercast.3 mph97%29.82 "Hg28 mi
5:00 AM64 °FLight rain. Low clouds.2 mph99%29.78 "Hg7 mi
4:00 AM63 °FThundershowers. Overcast.2 mph98%29.79 "Hg8 mi
3:00 AM65 °FOvercast.2 mph92%29.77 "Hg25 mi
2:00 AM66 °FOvercast.2 mph94%29.77 "Hg9 mi
1:00 AM66 °FThunderstorms. Overcast.3 mph94%29.75 "Hg8 mi
12:00 AM72 °FOvercast.6 mph69%29.73 "Hg19 mi
Weather by CustomWeather, © 2015

See weather overviewHow to use our weather pages